Regional Weather Roundup
Issued by NWS Sterling, VA

Home | Current Version | Previous Version | Text Only | Print | Product List | Glossary On
Versions: 1 2 3 4 5 6 7 8 9 10 11 12 13 14 15 16 17 18 19 20 21 22 23 24 25 26 27
000
ASUS41 KLWX 200810
RWRLWX

REGIONAL WEATHER ROUNDUP
NATIONAL WEATHER SERVICE BALTIMORE MD/WASHINGTON DC
300 AM EST MON FEB 20 2017

Note: "FAIR" indicates few or no clouds below 12,000 feet
with no significant weather and/or obstructions to visibility.
 TC=TEMPERATURE CELSIUS

 * =Non NWS site. Station does not report precipitation (e.g. rain,
    snow, etc.), thunder, or fog.

DCZ001-MDZ009-015-VAZ040>042-051-053>054-200900-
WASHINGTON METRO

CITY           SKY/WX    TMP DP  RH WIND       PRES   REMARKS
WASHINGTON NAT PTCLDY    50  42  74 CALM      30.10R
DULLES         CLEAR     50  41  71 NW6       30.10R
ANDREWS AFB    CLEAR     51  41  69 W8        30.08R
FT BELVOIR     CLEAR     43  38  82 CALM      30.10R
QUANTICO       CLEAR     44  41  89 NW6       30.11S
COLLEGE PARK*  CLEAR     52  41  66 W5        30.08S
LEESBURG*      CLEAR     52  45  76 MISG      30.11R
MANASSAS*      CLEAR     49  41  74 NW7       30.11R
GAITHERSBURG*  CLEAR     52  39  62 NW8       30.12R

$$

MDZ006>007-011-014-200900-
BALTIMORE METRO

CITY           SKY/WX    TMP DP  RH WIND       PRES   REMARKS
BWI AIRPORT    PTCLDY    45  40  82 W6        30.07R
MD SCIENCE CTR   N/A     53  39  59 MISG      30.07R
ANNAPOLIS      CLEAR     44  41  89 NW3       30.07R
FORT MEADE*    CLEAR     36  34  93 CALM      30.11R

$$

MDZ012-015-019>023-200900-
MARYLAND EASTERN SHORE

CITY           SKY/WX    TMP DP  RH WIND       PRES   REMARKS
OCEAN CITY     CLEAR     52  40  63 NW10      30.04R
SALISBURY      PTCLDY    50  42  74 NW6       30.05R
BAY BRIDGE AP* CLEAR     48  41  76 W5        30.07S
CAMBRIDGE*     PTCLDY    45  39  81 W5        30.07R
EASTON*        PTCLDY    49  41  72 NW6       30.10R

$$

MDZ017>025-200900-
SOUTHERN MARYLAND

CITY           SKY/WX    TMP DP  RH WIND       PRES   REMARKS
PATUXENT RIVER CLEAR     52  43  71 W9        30.08R
ST INIGOES     CLEAR     51  42  71 NW6       30.08R
LEONARDTOWN*   CLEAR     50  41  71 W5        30.11R

$$

MDZ003>005-200900-
NORTH CENTRAL MARYLAND

CITY           SKY/WX    TMP DP  RH WIND       PRES   REMARKS
FREDERICK*     CLEAR     43  39  87 CALM      30.12S
HAGERSTOWN APT CLEAR     53  40  61 W5        30.11R
WESTMINSTER*   CLEAR     50  39  66 NW5       30.08R

$$

MDZ501>502-200900-
WESTERN MARYLAND

CITY           SKY/WX    TMP DP  RH WIND       PRES   REMARKS
OAKLAND*       CLOUDY    41  41 100 W8        30.15S FOG
CUMBERLAND*    CLEAR     52  41  66 W7        30.18S

$$

VAZ025>031-200900-
SHENANDOAH VALLEY

CITY           SKY/WX    TMP DP  RH WIND       PRES   REMARKS
WINCHESTER*    CLEAR     46  39  76 NW7       30.13R
FRONT ROYAL*   CLEAR     45  37  76 CALM      30.12R
LURAY*         CLEAR     39  36  87 CALM      30.14R
NEW MARKET*    CLEAR     33  31  90 CALM      30.14R
STAUNTON*      CLEAR     31  30  94 CALM      30.17R
WAYNESBORO*    CLEAR     46  37  73 W6        30.14R

$$

WVZ021-048>050-054>055-200900-
EASTERN WEST VIRGINIA PANHANDLE

CITY           SKY/WX    TMP DP  RH WIND       PRES   REMARKS
MARTINSBURG    CLEAR     52  41  66 W10       30.11R
PETERSBURG*    CLEAR     35  35  98 CALM      30.18S FOG

$$

VAZ036>039-050-200900-
CENTRAL FOOTHILLS

CITY           SKY/WX    TMP DP  RH WIND       PRES   REMARKS
CHARLOTTESVILL CLEAR     53  35  50 CALM      30.11R
CULPEPER*      CLEAR     36  33  88 CALM      30.12R
ORANGE*        CLEAR     36  32  87 CALM      30.12R
GORDONSVILLE*  CLEAR     37  34  88 CALM      30.10R
WARRENTON*     CLEAR     35  31  85 CALM      30.10R

$$

VAZ055>057-200900-
NORTH AND CENTRAL PIEDMONT

CITY           SKY/WX    TMP DP  RH WIND       PRES   REMARKS
FREDERICKSBRG* CLEAR     42  38  86 CALM      30.10R
STAFFORD*      CLEAR     38  37  96 CALM      30.14R

$$

NCZ024-NYZ072-PAZ021-071-VAZ022-071-200900-
OTHER REGIONAL OBSERVATIONS

CITY           SKY/WX    TMP DP  RH WIND       PRES   REMARKS
NEW YORK CITY  PTCLDY    49  32  52 VRB7      30.04S
PHILADELPHIA   PTCLDY    49  31  49 N10       30.05S
PITTSBURGH     CLEAR     42  40  92 CALM      30.17R
ROANOKE        CLEAR     45  39  79 CALM      30.18R
RICHMOND       CLEAR     52  38  58 N6        30.09S
RALEIGH        PTCLDY    47  40  76 CALM      30.11R

$$

ANZ530>537-200900-
MARINE OBSERVATIONS

STATION/POSITION TIME  TEMP    WIND        PRES
                       AIR SEA DIR/SP/G
                 (UTC) (F)     (DEG/KT/KT) (MB)
THOMAS PT LIGHT  0800   55 41  280/ 11/ 12   N/A
BALT KEY BRIDGE  0748   53     250/  6/  7 1018.1R
COVE POINT       0748   54     310/ 11/ 17 1019.1R
LEWISETTA        0748   56 45  330/  9/ 12 1018.2R
SOLOMONS ISLAND  0748   52 42  310/  4/  6   N/A
PINEY POINT      0748          360/  7/  7   N/A

$$





USA.gov is the U.S. government's official web portal to all federal, state and local government web resources and services.